Huntington North Reservoir Drain




Date Panel Temperatutre (degC) Battery Voltage (V) GPM (gpm) CFS (cfs)
02/01/2019 13.2 44.0 0.1
02/02/2019 13.2 44.1 0.1
02/03/2019 13.2 44.6 0.1
02/04/2019 13.1 45.5 0.1
02/05/2019 13.1 45.4 0.1
02/06/2019 13.1 46.0 0.1
02/07/2019 13.3 45.6 0.1
02/08/2019 13.3 44.7 0.1
02/09/2019 13.2 45.2 0.1
02/10/2019 13.2 45.8 0.1
02/11/2019 13.2 46.0 0.1
02/12/2019 13.3 45.4 0.1
02/13/2019 13.3 45.1 0.1
02/14/2019 12.8 45.9 0.1
02/15/2019 12.4 46.1 0.1
02/16/2019 13.0 46.3 0.1
02/17/2019 13.3 46.5 0.1
02/18/2019 13.3 46.6 0.1
02/19/2019 13.2 46.7 0.1
02/20/2019 13.3 47.7 0.1
02/21/2019 13.3 47.5 0.1
02/22/2019 13.1 47.7 0.1
02/23/2019 13.3 47.3 0.1
02/24/2019 13.3 46.9 0.1
02/25/2019 13.3 47.2 0.1
02/26/2019 13.3 47.7 0.1
02/27/2019 13.2 47.8 0.1
02/28/2019 13.2 48.1 0.1
Average 0.1
Maximum 0.1
Minimum 0.1
Total Volume (AF) 5.6